Location: Bottenau
(48.5138°N, 8.0462°E)
Time: 21:09:02
(UTC+00:00)

Cosmos 2219 - Pass Details

Date: 18 April 2021
Orbit: 834 x 860 km, 71.1° (Epoch: 18 May)

Event Time Altitude Azimuth Distance (km) Brightness Sun altitude
Exits shadow 20:05:39 22° 151° (SSE) 1,757 4.3 -15.7°
Maximum altitude 20:08:19 33° 105° (ESE) 1,376 3.8 -16.0°
Drops below altitude 10° 20:13:16 10° 44° (NE) 2,455 5.6 -16.7°
Sets 20:15:56 0° 35° (NE) 3,396 6.4 -17.0°
